Cooperstown, ND

4:05 AM CDT on April 20, 2018 (GMT -0500)
Cooperstown

Weather History for KS32 - November, 2011

Change the Weather History Date:

Thursday, November 17, 2011

  Actual Average (KJMS) Record (KJMS)
Temperature  
Mean Temperature 12 °F -  
Max Temperature 24 °F 35 °F 70 °F (1953)
Min Temperature 1 °F 18 °F -9 °F (1911)
Degree Days  
Heating Degree Days 52    
Moisture  
Dew Point 9 °F    
Average Humidity 79    
Maximum Humidity 92    
Minimum Humidity 64    
Precipitation  
Precipitation 0.00 in - - ()
Sea Level Pressure  
Sea Level Pressure 29.98 in    
Wind  
Wind Speed 10 mph (SSW)    
Max Wind Speed 18 mph    
Max Gust Speed 23 mph    
Visibility 10 miles    
Events      
Averages and records for this station are not official NWS values.
T = Trace of Precipitation, MM = Missing Value Source: NWS Daily Summary

Daily Weather History Graph

Daily Weather History Graph

Search for Another Location

Airport or City:

Astronomy

Nov. 17, 2011 Rise Set
Actual Time 7:39 AM CST 4:54 PM CST
Civil Twilight 7:06 AM CST 5:28 PM CST
Nautical Twilight 6:28 AM CST 6:05 PM CST
Astronomical Twilight 5:52 AM CST 6:41 PM CST
Moon 11:26 PM CST (11/17) 12:42 PM CST (11/17)
Length of Visible Light 10h 22m
Length of Day
9h 14m
Waning Gibbous, 59% of the Moon is Illuminated
Nov 17
Waning Gibbous
Nov 18
Last Quarter
Nov 25
New
Dec 2
First Quarter
Dec 10
Full

Hourly Weather History & Observations

Time (CST) Temp. Windchill Dew Point Humidity Pressure Visibility Wind Dir Wind Speed Gust Speed Precip Events Conditions
12:15 AM 8.6 °F -5.5 °F 6.8 °F 92% 30.12 in 10.0 mi West 10.4 mph - N/A   Clear
12:35 AM 8.6 °F -6.3 °F 6.8 °F 92% 30.12 in 10.0 mi West 11.5 mph - N/A   Clear
12:55 AM 8.6 °F -5.5 °F 6.8 °F 92% 30.12 in 10.0 mi WNW 10.4 mph - N/A   Clear
1:15 AM 8.6 °F -4.7 °F 6.8 °F 92% 30.12 in 10.0 mi West 9.2 mph - N/A   Clear
1:35 AM 6.8 °F -7.8 °F 5.0 °F 92% 30.11 in 10.0 mi West 10.4 mph - N/A   Clear
1:55 AM 6.8 °F -7.8 °F 5.0 °F 92% 30.11 in 10.0 mi West 10.4 mph - N/A   Clear
2:15 AM 6.8 °F -7.8 °F 5.0 °F 92% 30.11 in 10.0 mi West 10.4 mph - N/A   Clear
2:35 AM 6.8 °F -6.9 °F 5.0 °F 92% 30.11 in 10.0 mi West 9.2 mph - N/A   Clear
2:55 AM 5.0 °F -10.0 °F 3.2 °F 92% 30.12 in 10.0 mi West 10.4 mph - N/A   Clear
3:15 AM 6.8 °F -6.9 °F 5.0 °F 92% 30.12 in 10.0 mi West 9.2 mph - N/A   Clear
3:35 AM 6.8 °F -6.9 °F 5.0 °F 92% 30.11 in 10.0 mi West 9.2 mph - N/A   Clear
4:15 AM 5.0 °F -6.9 °F 3.2 °F 92% 30.11 in 10.0 mi West 6.9 mph - N/A   Clear
4:35 AM 5.0 °F -6.9 °F 3.2 °F 92% 30.10 in 10.0 mi WNW 6.9 mph - N/A   Clear
4:55 AM 5.0 °F -2.1 °F 1.4 °F 85% 30.11 in 10.0 mi West 3.5 mph - N/A   Clear
5:15 AM 5.0 °F -4.1 °F 3.2 °F 92% 30.11 in 10.0 mi West 4.6 mph - N/A   Clear
5:35 AM 5.0 °F -6.9 °F 3.2 °F 92% 30.11 in 10.0 mi WSW 6.9 mph - N/A   Clear
6:15 AM 1.4 °F -9.9 °F -0.4 °F 92% 30.10 in 10.0 mi WNW 5.8 mph - N/A   Clear
6:35 AM 5.0 °F -5.6 °F 1.4 °F 85% 30.09 in 10.0 mi West 5.8 mph - N/A   Clear
6:55 AM 5.0 °F -5.6 °F 1.4 °F 85% 30.10 in 10.0 mi SW 5.8 mph - N/A   Clear
7:15 AM 5.0 °F -6.9 °F 3.2 °F 92% 30.10 in 10.0 mi WSW 6.9 mph - N/A   Clear
7:35 AM 5.0 °F -4.1 °F 1.4 °F 85% 30.09 in 10.0 mi West 4.6 mph - N/A   Clear
7:55 AM 3.2 °F -6.2 °F -0.4 °F 85% 30.08 in 10.0 mi WSW 4.6 mph - N/A   Clear
8:15 AM 5.0 °F -4.1 °F 3.2 °F 92% 30.08 in 10.0 mi WSW 4.6 mph - N/A   Clear
8:35 AM 6.8 °F -2.0 °F 5.0 °F 92% 30.08 in 10.0 mi WSW 4.6 mph - N/A   Clear
8:55 AM 8.6 °F - 6.8 °F 92% 30.08 in 10.0 mi Calm Calm - N/A   Clear
9:15 AM 10.4 °F - 8.6 °F 92% 30.08 in 10.0 mi Calm Calm - N/A   Clear
9:35 AM 10.4 °F 4.0 °F 8.6 °F 92% 30.07 in 10.0 mi South 3.5 mph - N/A   Clear
9:55 AM 14.0 °F - 10.4 °F 86% 30.06 in 10.0 mi Calm Calm - N/A   Clear
10:15 AM 14.0 °F - 10.4 °F 86% 30.06 in 10.0 mi Calm Calm - N/A   Clear
10:35 AM 15.8 °F 10.2 °F 12.2 °F 86% 30.05 in 10.0 mi SSE 3.5 mph - N/A   Clear
10:55 AM 17.6 °F 10.7 °F 14.0 °F 86% 30.04 in 10.0 mi SSE 4.6 mph - N/A   Clear
11:15 AM 17.6 °F 8.2 °F 14.0 °F 86% 30.04 in 10.0 mi SSE 6.9 mph - N/A   Clear
11:35 AM 19.4 °F 10.4 °F 14.0 °F 80% 30.01 in 10.0 mi SSE 6.9 mph - N/A   Clear
11:55 AM 19.4 °F 7.9 °F 14.0 °F 80% 30.00 in 10.0 mi South 10.4 mph - N/A   Clear
12:15 PM 23.0 °F 12.4 °F 14.0 °F 68% 29.98 in 10.0 mi South 10.4 mph - N/A   Clear
12:35 PM 23.0 °F 12.4 °F 14.0 °F 68% 29.98 in 10.0 mi SSE 10.4 mph - N/A   Clear
12:55 PM 23.0 °F 10.6 °F 14.0 °F 68% 29.96 in 10.0 mi South 13.8 mph - N/A   Clear
1:15 PM 23.0 °F 12.4 °F 14.0 °F 68% 29.95 in 10.0 mi SSE 10.4 mph - N/A   Clear
1:35 PM 24.8 °F 12.4 °F 14.0 °F 64% 29.94 in 10.0 mi SSE 15.0 mph - N/A   Partly Cloudy
2:15 PM 24.8 °F 14.6 °F 14.0 °F 64% 29.92 in 10.0 mi SSE 10.4 mph - N/A   Clear
2:35 PM 24.8 °F 12.9 °F 14.0 °F 64% 29.90 in 10.0 mi SSE 13.8 mph - N/A   Scattered Clouds
2:55 PM 24.8 °F 12.4 °F 14.0 °F 64% 29.89 in 10.0 mi SE 15.0 mph - N/A   Scattered Clouds
3:15 PM 24.8 °F 14.0 °F 14.0 °F 64% 29.87 in 10.0 mi SE 11.5 mph - N/A   Partly Cloudy
3:35 PM 24.8 °F 11.9 °F 14.0 °F 64% 29.86 in 10.0 mi SE 16.1 mph - N/A   Partly Cloudy
3:55 PM 24.8 °F 11.1 °F 14.0 °F 64% 29.85 in 10.0 mi SE 18.4 mph 21.9 mph N/A   Partly Cloudy
4:15 PM 24.8 °F 11.5 °F 14.0 °F 64% 29.84 in 10.0 mi SE 17.3 mph - N/A   Mostly Cloudy
4:35 PM 24.8 °F 13.4 °F 14.0 °F 64% 29.85 in 10.0 mi SE 12.7 mph - N/A   Mostly Cloudy
4:55 PM 24.8 °F 12.4 °F 14.0 °F 64% 29.83 in 10.0 mi SE 15.0 mph - N/A   Mostly Cloudy
5:15 PM 23.0 °F 9.6 °F 14.0 °F 68% 29.80 in 10.0 mi ESE 16.1 mph - N/A   Mostly Cloudy
5:35 PM 23.0 °F 9.2 °F 14.0 °F 68% 29.78 in 10.0 mi ESE 17.3 mph - N/A   Scattered Clouds
5:55 PM 23.0 °F 8.7 °F 14.0 °F 68% 29.77 in 10.0 mi ESE 18.4 mph 21.9 mph N/A   Scattered Clouds
6:15 PM 23.0 °F 9.2 °F 14.0 °F 68% 29.78 in 10.0 mi SE 17.3 mph - N/A   Mostly Cloudy
6:35 PM 23.0 °F 9.2 °F 14.0 °F 68% 29.77 in 10.0 mi SE 17.3 mph - N/A   Mostly Cloudy
6:55 PM 23.0 °F 9.6 °F 14.0 °F 68% 29.77 in 10.0 mi SE 16.1 mph - N/A   Mostly Cloudy
7:35 PM 23.0 °F 8.7 °F 14.0 °F 68% 29.73 in 10.0 mi SE 18.4 mph - N/A   Clear
7:55 PM 23.0 °F 8.7 °F 14.0 °F 68% 29.72 in 10.0 mi SE 18.4 mph - N/A   Partly Cloudy
8:15 PM 24.8 °F 11.9 °F 14.0 °F 64% 29.74 in 10.0 mi SE 16.1 mph 19.6 mph N/A   Mostly Cloudy
8:35 PM 24.8 °F 11.9 °F 14.0 °F 64% 29.73 in 10.0 mi SE 16.1 mph 23.0 mph N/A   Mostly Cloudy
8:55 PM 24.8 °F 11.1 °F 14.0 °F 64% 29.70 in 10.0 mi SE 18.4 mph 21.9 mph N/A   Overcast
9:15 PM 23.0 °F 9.6 °F 14.0 °F 68% 29.68 in 10.0 mi ESE 16.1 mph 23.0 mph N/A   Scattered Clouds
9:35 PM 23.0 °F 9.6 °F 14.0 °F 68% 29.67 in 10.0 mi SE 16.1 mph - N/A   Mostly Cloudy
9:55 PM 24.8 °F 11.5 °F 14.0 °F 64% 29.66 in 10.0 mi SE 17.3 mph 20.7 mph N/A   Overcast
10:35 PM 24.8 °F 11.9 °F 14.0 °F 64% 29.64 in 10.0 mi SE 16.1 mph - N/A   Scattered Clouds
10:55 PM 24.8 °F 14.0 °F 14.0 °F 64% 29.65 in 10.0 mi SE 11.5 mph - N/A   Mostly Cloudy
11:15 PM 24.8 °F 12.9 °F 15.8 °F 69% 29.64 in 10.0 mi ESE 13.8 mph - N/A   Overcast
11:35 PM 24.8 °F 12.9 °F 14.0 °F 64% 29.62 in 10.0 mi SE 13.8 mph 19.6 mph N/A   Mostly Cloudy
11:55 PM 24.8 °F 11.5 °F 14.0 °F 64% 29.60 in 10.0 mi ESE 17.3 mph - N/A   Scattered Clouds